{"data":{"norad_id":44067,"epoch":"2026-05-24T23:13:45.697728Z","epoch_age_seconds":77751,"freshness":"FRESH","line1":"1 44067U 19012A   26144.96789002 -.00000338  00000+0  00000+0 0  9995","line2":"2 44067   0.1069  79.7519 0012709 324.9900 316.6602  1.00268791 26504","mean_motion":1.00268791,"eccentricity":0.0012709,"inclination_deg":0.1069,"raan_deg":79.7519,"arg_perigee_deg":324.99,"mean_anomaly_deg":316.6602,"bstar":0,"rev_number":2650,"period_min":1436.1397855091,"perigee_km":35733.846084384,"apogee_km":35841.022533538,"semimajor_km":42165.571308961,"source":"CELESTRAK","updated_at":"2026-05-25T13:38:14.062188Z"}}